www.pogodaiklimat.ru

Погода и климат >> Архив погоды >> Россия >> Мурманская область >> Пялица


ПОГОДА в Пялице

  • Прогноз погоды в Пялице
  • Монитор погоды в Пялице

АРХИВ ПОГОДЫ в Пялице

Время (UTC), дата Ветер
(напр.,м/с)
 
Видим.   Явления Облачность Т
(С)
Тd
(С)
f
(%)
Тe
(С)
Тes
(С)
Комфортность P
(гПа)
Po
(гПа)
Тmin
(С)
Tmax
(С)
R
(мм)
R24
(мм)
S
(см)
12 11.06 С 8-11
{15}
4000 м слаб. ливневой дождь 10/10 600 м
[Cb cap]
+4.6 +2.9 89 -2 -2 1013.3 1012.2
15 11.06 С 7-11
{14}
20 км в посл. час ливневой дождь 9/9 600 м
[Cb cap]
+3.4 +0.6 82 -3 -3 1018.3 1017.2 2
18 11.06 С 6-9
{14}
20 км {ливн. осадки} 9/9 600 м
[Cb cap]
+2.6 +0.6 87 -3 -3 1021.2 1020.1 +11.5 3
21 11.06 СЗ 5-6
{10}
н/о н/о +1.9 +0.4 90 -4 -4 1021.6 1020.5
00 12.06 С 3 20 км 9/8 600 м
[Cb cap Ci fib]
+2.3 +0.2 86 -2 -2 1022.6 1021.5
03 12.06 С 6 20 км 8/5 600 м
[Cb cap Ci fib]
+3.9 +0.8 80 -2 -1 1023.3 1022.2 +1.8 0.5
06 12.06 С 6-10
{11}
20 км 10/10 600 м
[Cb cap]
+5.6 +1.4 74 +1 +1 1024.3 1023.2 +1.8 0.5
09 12.06 СЗ 8-12
{12}
10 км слаб. ливневой дождь 6/6 600 м
[Cb cap]
+7.9 +2.5 69 +3 +4 1025.4 1024.3
12 12.06 С 7-12
{12}
20 км {ливн. осадки} 9/9 600 м
[Cb cap]
+9.3 +1.2 57 +6 +6 1026.3 1025.2
15 12.06 С 6-9
{12}
20 км 8/6 600 м
[Sc Ci fib]
+9.8 +1.2 55 +7 +7 1026.8 1025.7 0.0
18 12.06 С 4-6
{10}
20 км 8/8 600 м
[Sc]
+8.5 +1.8 63 +6 +6 1027.3 1026.2 +10.2 0.0
21 12.06 СЗ 1 н/о н/о +4.9 +1.6 79 +4 +4 1027.9 1026.8
00 13.06 З 2 20 км 3/0
[Ci fib]
+1.5 +0.8 95 -2 -2 1028.6 1027.5
03 13.06 СЗ 3 20 км 4/0
[Ci fib]
+6.8 +2.0 71 +4 +6 1028.0 1026.9 +1.0
06 13.06 СЗ 6 20 км 8/1 600 м
[Sc Ci fib]
+11.5 +3.2 57 +9 +11 1027.4 1026.3 +1.0
09 13.06 ЮЗ 7-9
{11}
20 км 8/6 600 м
[Cu hum Ci fib]
+7.1 +4.3 82 +2 +4 1026.6 1025.5
12 13.06 ЮЗ 4-6
{10}
20 км 8/8 600 м
[Cu Sc Ci fib]
+8.5 +5.1 79 +5 +7 1025.5 1024.4
15 13.06 В 5 20 км 9/8 600 м
[Cu med, cong Ci fib]
+8.5 +5.5 81 +5 +5 1024.2 1023.1
18 13.06 В 4-6
{10}
20 км 8/3 600 м
[Sc Ci fib]
+5.7 +2.8 82 +2 +2 1023.5 1022.4 +15.6
21 13.06 СВ 3 н/о н/о +3.4 +2.2 92 -1 -1 1022.7 1021.6
00 14.06 С 1 20 км 8/8 600 м
[Cb cap]
+3.4 +2.8 96 +2 +2 1021.5 1020.4
03 14.06 Ю 2 20 км 9/9 600 м
[Cb cap]
+5.6 +3.8 88 +3 +3 1019.8 1018.7 +2.4
06 14.06 ЮЗ 2 20 км 10/10 600 м
[Sc]
+4.9 +3.1 88 +2 +2 1018.1 1017.0 +2.4
09 14.06 Ю 3 20 км 10/10 600 м
[Sc]
+6.6 +5.2 91 +3 +3 1015.7 1014.6
12 14.06 ЮВ 4-6
{10}
4000 м слаб. ливневой дождь 10/10 300 м
[Cb cap]
+6.8 +6.0 95 +3 +3 1015.0 1013.9
15 14.06 В 4-5
{11}
20 км {ливн. осадки} 10/10 300 м
[Cb cap]
+5.8 +4.6 92 +2 +2 1014.9 1013.8 5
18 14.06 В 3 20 км {ливн. осадки} 9/9 600 м
[Sc]
+4.7 +3.5 92 +1 +1 1014.6 1013.5 +15.9 5
00 15.06 С 2 20 км 9/9 600 м
[Sc]
+5.0 +3.3 89 +2 +2 1014.2 1013.1
03 15.06 С 4 20 км 9/9 600 м
[Sc]
+6.2 +2.6 78 +3 +3 1014.2 1013.1 +3.8
06 15.06 С 6 20 км 8/6 600 м
[Sc Ci fib]
+10.0 +3.9 66 +7 +8 1014.1 1013.1 +3.8
09 15.06 С 5 20 км 10/10 600 м
[Sc]
+10.1 +3.3 63 +7 +7 1014.6 1013.6
12 15.06 С 4 20 км 9/9 600 м
[Sc]
+11.5 +3.1 56 +10 +10 1014.6 1013.6
15 15.06 ЮЗ 3 20 км 8/8 600 м
[Cb cap]
+9.1 +4.7 74 +7 +7 1013.7 1012.7
18 15.06 ЮЗ 5 20 км 8/8 600 м
[Sc]
+7.1 +5.7 91 +3 +3 1012.3 1011.2 +11.9
21 15.06 ЮЗ 5 н/о н/о +6.5 +5.4 93 +2 +2 1010.2 1009.1
00 16.06 ЮЗ 5 20 км 9/8 600 м
[Sc Ac trans]
+6.9 +5.7 92 +3 +3 1007.7 1006.6
03 16.06 З 3 20 км 3/1 600 м
[Sc Ac trans Ci fib]
+9.0 +6.6 85 +7 +8 1005.0 1004.0 +6.2
06 16.06 С 7-11
{11}
20 км 3/1
[Sc Ci fib]
+15.7 +3.4 44 +14 +16 1005.1 1004.1 +6.2
09 16.06 С 6-10
{13}
20 км 8/5 600 м
[Sc Ci fib]
+11.9 +4.1 59 +9 +11 1007.5 1006.5
12 16.06 СВ 6-10
{11}
20 км 9/8 600 м
[Sc Ci fib]
+12.9 +2.9 51 +11 +11 1008.4 1007.4
15 16.06 СЗ 6-9
{10}
20 км 8/8 600 м
[Sc]
+12.4 +1.6 48 +10 +10 1009.1 1008.1
18 16.06 ЮЗ 6 20 км 9/9 600 м
[Sc]
+7.4 +6.0 91 +3 +3 1009.0 1008.0 +16.2
00 17.06 С 4 20 км 8/8 600 м
[Sc]
+6.6 +2.9 77 +3 +3 1008.8 1007.7
03 17.06 С 5-9
{10}
20 км 4/1 600 м
[Sc Ci fib]
+8.4 +1.2 60 +5 +6 1008.9 1007.9 +5.7
06 17.06 СЗ 5 20 км 3/1 600 м
[Sc Ci fib]
+11.1 +2.1 54 +9 +12 1009.0 1008.0 +5.7
09 17.06 ЮЗ 6 20 км 5/5 600 м
[Cu Sc]
+7.6 +4.4 80 +3 +6 1008.9 1007.8
12 17.06 ЮЗ 7-9
{11}
20 км 5/5 600 м
[Cu Sc]
+8.4 +5.5 82 +4 +5 1007.9 1006.9
15 17.06 ЮЗ 8-11
{12}
20 км 4/4 600 м
[Cu Sc]
+8.6 +6.6 87 +4 +4 1006.8 1005.8
18 17.06 СВ 8-11
{12}
20 км 6/4 600 м
[Sc Ci fib]
+6.8 +3.0 77 +2 +2 1007.0 1005.9 +12.4
21 17.06 СВ 5-6
{11}
н/о н/о +3.3 +1.6 89 -2 -2 1007.9 1006.8
00 18.06 СВ 4 20 км 4/1 600 м
[Sc Ci fib]
+2.0 +1.0 93 -3 -3 1008.2 1007.1
03 18.06 В 4 20 км 6/3 600 м
[Sc Ci fib]
+6.3 +3.3 81 +3 +4 1008.4 1007.3 +1.7
06 18.06 В 5 20 км 6/1 600 м
[Sc Ci fib]
+7.0 +3.0 76 +3 +6 1008.7 1007.6 +1.7

 

Местоположение метеостанции Пялица (Мурманская область, Россия): широта 66.18 долгота 39.53 высота над уровнем моря 9 м.

В архиве по умолчанию представлена погода в Пялице за последнюю неделю. Архивные данные за месяц целиком и за предыдущие месяцы, начиная с января 2011 года, Вы можете получить, выбрав интересующий диапазон дат из раскрывающегося списка и нажав кнопку "Ввод!".


*Определитесь, кто Вы:
робот инопланетянин человек

Внимание! Время в таблицах - всемирное. Для получения местного времени необходимо прибавить поправку, которая равна 3 ч.

Смотрите также архив погоды в соседних городах и на ближайших метеорологических станциях:

Погода на Сосновец Острове (Мурманская область, Россия) (61 км)
Погода на Чаваньга реке (Мурманская область, Россия) (81 км)
Погода в Зимнегорском Маяке (Архангельская область, Россия) (81 км)
Погода в Каневке (Мурманская область, Россия) (106 км)
Погода в Кепино (Архангельская область, Россия) (138 км)
Погода на Моржовец Острове (Архангельская область, Россия) (144 км)
Погода на Мудьюг Острове (Архангельская область, Россия) (152 км)
Погода в Кашкаранцах (Мурманская область, Россия) (158 км)
Погода в Унском Маяке (Архангельская область, Россия) (159 км)
Погода в Жижгине (Архангельская область, Россия) (165 км)

Пояснения к столбцам:

Ветер - указаны скорость ветра в м/с - средняя за 10 мин, порывы в срок и между сроками (в фигурных скобках) и направление, откуда дует ветер: С - северный, СВ - северо-восточный, В - восточный, ЮВ - юго-восточный, Ю - южный, ЮЗ - юго-западный, З - западный, СЗ - северо-западный.
Видимость - горизонтальная дальность видимости в метрах или километрах. При видимости от 1 до 10 км при отсутствии осадков обычно наблюдается дымка, при ухудшении видимости до 1 км и менее - туман. В сухую погоду видимость может ухудшаться дымом, пылью или мглою.
Явления - указаны атмосферные явления, наблюдавшиеся в срок или в последний час перед сроком; фигурными скобками обозначены явления, наблюдавшиеся между сроками (за 1-3 часа до срока); квадратными скобками обозначены град или гололедные отложения с указанием их диаметра в мм.
Облачность - указаны через наклонную черту общая и нижняя облачность в баллах и высота нижней границы облаков в метрах; квадратными скобками обозначены формы облаков: Ci - перистые, Cs - перисто-слоистые, Cc - перисто-кучевые, Ac - высококучевые, As - высокослоистые, Sc - слоисто-кучевые, Ns - слоисто-дождевые, Cu - кучевые, Cb - кучево-дождевые. Подробнее классификацию облаков см. в Атласе облаков (PDF).
T - Температура воздуха - температура, измеренная на высоте 2 м над землей.
Td - Температура точки росы - температура, при понижении до которой содержащийся в воздухе водяной пар достигнет насыщения.
f - Относительная влажность воздуха - влажноcть воздуха, измеренная на высоте 2 м над землей.
Te - Эффективная температура - температура, которую ощущает одетый по сезону человек в тени. Характеристика душности погоды. При расчете учитывается влияние влажности воздуха и скорости ветра на теплоощущения человека.
Tes - Эффективная температура на солнце - температура, которую ощущает человек, с поправкой на солнечный нагрев. Характеристика знойности погоды. Зависит от высоты солнца над горизонтом, облачности и скорости ветра. Ночью, в пасмурную погоду, а также при ветре 12 м/с и более поправка равна нулю.
P - Атмосферное давление - приведенное к уровню моря атмосферное давление.
Po - Атмосферное давление - измеренное на уровне метеостанции атмосферное давление.
Tmin - Минимальная температура - минимум температуры воздуха на высоте 2 м над землей.
Tmax - Максимальная температура - максимум температуры воздуха на высоте 2 м над землей.
R - Количество осадков - Количество выпавших осадков за период времени, мм. При наведении курсора мыши на число - период времени, за который выпало указанное количество осадков.
R24 - Количество осадков - Количество выпавших осадков за 24 часа, мм.
S - Снежный покров - Высота снежного покрова, см. При наведении курсора мыши на число - состояние снежного покрова и степень покрытия местности в баллах.